Regional Weather Roundup
Issued by NWS

Home | Current Version | Previous Version | Text Only | Print | Product List | Glossary Off
Versions: 1 2 3 4 5 6 7 8 9 10 11 12 13 14 15 16 17 18 19 20 21 22 23 24 25 26 27 28 29 30 31 32 33 34 35 36 37 38 39 40 41 42 43 44 45 46 47 48 49 50

501
ASUS43 KMPX 240710
RWRMN
WEATHER ROUNDUP FOR MINNESOTA
NATIONAL WEATHER SERVICE TWIN CITIES/CHANHASSEN MN
200 AM CDT MON JUL 24 2017


NOTE: "FAIR" INDICATES FEW OR NO CLOUDS BELOW 12,000 FEET WITH NO
SIGNIFICANT WEATHER AND/OR OBSTRUCTIONS TO VISIBILITY. N/A MEANS
CURRENT SKY AND/OR WEATHER CONDITIONS ARE NOT AVAILABLE.

MNZ060>063-068>070-240800-
   Twin Cities Metro

CITY           SKY/WX    TMP DP  RH WIND       PRES   REMARKS
TWIN CITIES    CLEAR     63  56  78 CALM      30.04R
ST PAUL        CLEAR     61  58  90 NE3       30.03S
CRYSTAL        CLEAR     60  55  83 CALM      30.02S
BLAINE         CLEAR     61  59  94 CALM      30.04R
LAKEVILLE      CLEAR     55  55 100 CALM      30.03S FOG
EDEN PRAIRIE   CLEAR     63  57  81 CALM      30.03R
SOUTH ST PAUL  CLEAR     62  56  81 CALM      30.03R
LAKE ELMO      FAIR      57  55  94 CALM      30.04S
$$
MNZ001>005-007-008-013>017-022>024-027-028-240800-
   Northwest Minnesota

CITY           SKY/WX    TMP DP  RH WIND       PRES   REMARKS
BEMIDJI        CLEAR     54  52  93 CALM      30.04R
HALLOCK        CLEAR     61  59  94 S5        29.96F
ROSEAU         CLEAR     59  54  82 S5        29.99S
WARROAD        CLEAR     61  57  88 CALM      30.00S
THIEF RVR FALL CLEAR     60  58  92 S5        30.01F
CROOKSTON      CLEAR     61  59  94 S6        30.00S
FOSSTON        CLEAR     55  54  94 CALM      30.03S
DETROIT LAKES  CLEAR     63  59  88 S5        30.04S
MOORHEAD       CLEAR     63  61  94 SE5       30.00F
PARK RAPIDS    CLEAR     61  56  83 SE7       30.04S
MAHNOMEN       FAIR      60  56  89 SE3       30.02S
$$
MNZ006-009>011-018-025>026-240800-
   North Central Minnesota

CITY           SKY/WX    TMP DP  RH WIND       PRES   REMARKS
BAUDETTE       CLEAR     59  56  89 S5        30.01R
FLAG ISLAND    CLEAR     68  63  83 CALM      29.98R HAZE
INTL FALLS     CLEAR     52  49  89 S5        30.03R
WASKISH        CLEAR     55  55 100 CALM      30.03S
BIG FORK       CLEAR     54  54 100 CALM      30.05S FOG
LONGVILLE      CLEAR     55  55 100 CALM      30.05S
GRAND RAPIDS   CLEAR     55  53  93 CALM      30.08R
CRANE LAKE     CLEAR     54  52  94 CALM      30.06S
ORR            CLEAR     55  54  94 CALM      30.03S
COOK           CLEAR     54  52  94 CALM      30.06S
WALKER         FAIR      55  54  98 S5        30.05R
$$
MNZ012-019>021-037-240800-
   Northeast Minnesota

CITY           SKY/WX    TMP DP  RH WIND       PRES   REMARKS
DULUTH         FOG       54  54 100 CALM      30.06R VSB 1/4
ELY            CLEAR     50  48  93 CALM      30.06S
HIBBING        FOG       48  48 100 CALM      30.06S VSB 1/4
EVELETH        FOG       50  48  92 CALM      30.07S VSB 1/2
DULUTH HARBOR  CLOUDY    59  57  94 CALM      30.06S
TWO HARBORS    CLEAR     50  45  81 CALM      30.04S
SILVER BAY     CLEAR     45  45 100 CALM      30.04S
GRAND MARAIS     N/A     52  51  97 CALM      30.04R
G MARAIS ARPRT CLEAR     46  43  87 CALM      30.08R
$$
MNZ029>031-032-039>041-046>048-054>057-064-240800-
   West Central Minnesota

CITY           SKY/WX    TMP DP  RH WIND       PRES   REMARKS
FERGUS FALLS   PTCLDY    66  61  82 SE3       30.01F
WHEATON        CLEAR     57  54  88 CALM      30.03S
MORRIS         CLEAR     63  61  94 SE7       30.02S
ALEXANDRIA     MOCLDY    62  59  90 SE6       30.05S
ELBOW LAKE     FAIR      64  61  88 SE5       30.03S
WADENA         CLOUDY    61  59  94 CALM      30.04S
GLENWOOD       CLEAR     59  57  94 E5        30.05S
APPLETON       CLEAR     61  57  88 E6        30.01F
BENSON         CLEAR     63  59  88 CALM      30.04S
ORTONVILLE     CLEAR     63  61  94 CALM      30.01F
MADISON        CLEAR     61  61 100 CALM      30.02S
WILLMAR        FAIR      63  59  88 E6        30.05S
$$
MNZ033>034-036-042>043-049>051-058-059-240800-
   Central Minnesota

CITY           SKY/WX    TMP DP  RH WIND       PRES   REMARKS
ST CLOUD       CLEAR     55  55 100 CALM      30.04S FOG
SAUK CENTRE    FAIR      58  57  97 CALM      30.05S
PAYNESVILLE    CLEAR     59  57  94 CALM      30.05F
AITKIN         FOG       50  48  93 CALM      30.04S VSB 1/4
PINE RIVER     CLEAR     55  55 100 CALM      30.09R
BRAINERD       FOG       55  55 100 CALM      30.05S VSB 1/4
STAPLES        CLEAR     57  57 100 CALM      30.05S
LONG PRAIRIE   FAIR      55  55 100 CALM      30.06R
LITTLE FALLS   CLEAR     55  54  94 CALM      30.05S
LITCHFIELD     CLEAR     63  61  94 E3        30.04F
BUFFALO        CLEAR     58  55  88 CALM      30.05S
MAPLE LAKE       N/A     57  56  97 CALM      30.05S FOG
HUTCHINSON     CLEAR     61  59  94 NE3       30.05S
$$
MNZ037-044-045-052-053-240800-
   East Central Minnesota

CITY           SKY/WX    TMP DP  RH WIND       PRES   REMARKS
PRINCETON      MOCLDY    54  52  94 CALM      30.05R FOG
MORA           CLEAR     54  52  94 CALM      30.07S
CAMBRIDGE      CLEAR     61  55  82 CALM      30.03R
RUSH CITY      PTCLDY    56  55  94 CALM      30.05S
MOOSE LAKE     CLOUDY    55  54  94 CALM      30.05R FOG
HINCKLEY       FAIR      54  54 100 CALM      30.06R FOG
CLOQUET        CLOUDY    55  54  94 CALM      30.06R FOG
MCGREGOR       MOCLDY    52  50  93 CALM      30.06S VSB 3/4
$$
MNZ071>073-080-081-089-090-097-098-240800-
   Southwest Minnesota

CITY           SKY/WX    TMP DP  RH WIND       PRES   REMARKS
MONTEVIDEO     PTCLDY    61  57  88 S6        30.03S
GRANITE FALLS  CLEAR     65  61  87 E3        30.05R
CANBY          CLEAR     58  56  94 CALM      30.04R
MARSHALL       CLEAR     62  59  90 CALM      30.03S
REDWOOD FALLS  CLEAR     63  59  87 CALM      30.03R
OLIVIA         CLEAR     61  55  82 E6        30.03R
PIPESTONE      CLEAR     63  57  82 CALM      30.04S
WINDOM         CLEAR     63  59  88 CALM      30.04S
WORTHINGTON    CLEAR     57  55  93 CALM      30.05S
JACKSON        CLEAR     61  59  94 CALM      30.04S
SLAYTON        HVY RAIN  58  54  87 NW3       30.05S
$$
MNZ065>067-074>077-082>085-091>093-240800-
   South Central Minnesota

CITY           SKY/WX    TMP DP  RH WIND       PRES   REMARKS
NEW ULM        CLEAR     63  57  82 E5        30.03S
ST JAMES       CLEAR     63  61  94 E5        30.04R
FAIRMONT       CLEAR     62  59  90 E3        30.04R
GLENCOE        CLEAR     59  59 100 CALM      30.03S
FARIBAULT      MOCLDY    59  57  94 CALM      30.04R
OWATONNA       MOCLDY    57  57 100 CALM      30.04R
WASECA         CLEAR     59  55  88 CALM      30.05R
ALBERT LEA     CLEAR     59  57  94 CALM      30.03S
$$
MNZ078>079-086>088-094>096-240800-
   Southeast Minnesota

CITY           SKY/WX    TMP DP  RH WIND       PRES   REMARKS
ROCHESTER      PTCLDY    59  57  93 N5        30.03R
RED WING       PTCLDY    61  55  82 W5        30.01R
STANTON        CLEAR     59  56  91 CALM      30.02R
DODGE CENTER   PTCLDY    57  55  94 N3        30.03R
WINONA         CLOUDY    64  59  82 CALM      30.00R
AUSTIN         CLEAR     57  55  94 CALM      30.02S
PRESTON        CLEAR     57  55  94 N3        30.02R
$$
ABBREVIATIONS USED IN REMARKS
   TC - TEMPERATURES IN CELSIUS
  WCI - WIND CHILL INDEX
   HX - HEAT INDEX
  VSB - VISIBILITY
$$




USA.gov is the U.S. government's official web portal to all federal, state and local government web resources and services.